Location: Dobroszyce
(51.2646°N, 17.3392°E)
Time: 04:58:37
(UTC+01:00)

ISS - Visible Passes

Search period start: 24 November 2017 00:00
Search period end: 04 December 2017 00:00
Orbit: 402 x 407 km, 51.6° (Epoch: 24 November)

Date Brightness Start Highest point End Pass type
(mag) Time Alt. Az. Time Alt. Az. Time Alt. Az.
28 Nov -1.4 18:16:53 10° SSW 18:17:50 16° S 18:17:50 16° S visible
29 Nov -1.8 17:25:25 10° S 17:27:25 15° SE 17:27:45 15° SE visible
29 Nov -0.5 19:00:10 10° WSW 19:00:25 12° WSW 19:00:25 12° WSW visible
30 Nov -2.5 18:07:59 10° SW 18:10:15 32° S 18:10:15 32° S visible
01 Dec -2.4 17:16:00 10° SSW 17:18:49 27° SSE 17:20:01 21° ESE visible
01 Dec -0.9 18:51:44 10° WSW 18:52:40 18° WSW 18:52:40 18° WSW visible
02 Dec -1.7 16:24:19 10° S 16:26:36 18° SE 16:28:54 10° E visible
02 Dec -3.5 17:59:23 10° WSW 18:02:23 59° S 18:02:23 59° S visible
03 Dec -3.2 17:07:08 10° SW 17:10:17 44° SSE 17:12:04 22° E visible
03 Dec -1.3 18:43:21 10° W 18:44:42 22° W 18:44:42 22° W visible
